SHT6N EGLL-EGPF

Flight info

Callsign SHT6N
Flight time 0h 54m
Altitude 36000
Route ULTIB T420 TNT UN57 POL UN601 RIBEL DCT ASLIB
Aircraft A319/M-SDE3FGIJ1KRWXY/LB1

Departure

Time 2026-05-07 09:16
Airport London Heathrow Airport (EGLL)

Arrival

Time 2026-05-07 10:10
Airport Glasgow Airport (EGPF)
Time Latitude Longitude Altitude Speed Heading
2026-05-07 08:50 51.47271 -0.48588 89 ft 0 kts 270°
2026-05-07 09:08 51.47271 -0.48575 89 ft 4 kts 270°
2026-05-07 09:08 51.47271 -0.48531 89 ft 3 kts 269°
2026-05-07 09:09 51.47272 -0.48498 89 ft 4 kts 246°
2026-05-07 09:09 51.47288 -0.48474 90 ft 4 kts 184°
2026-05-07 09:09 51.47310 -0.48473 89 ft 1 kts 179°
2026-05-07 09:12 51.47309 -0.48473 89 ft 1 kts 180°
2026-05-07 09:12 51.47289 -0.48473 90 ft 5 kts 179°
2026-05-07 09:12 51.47245 -0.48472 87 ft 8 kts 179°
2026-05-07 09:12 51.47179 -0.48471 86 ft 11 kts 179°
2026-05-07 09:13 51.47107 -0.48470 86 ft 9 kts 180°
2026-05-07 09:13 51.47033 -0.48471 86 ft 12 kts 180°
2026-05-07 09:13 51.46953 -0.48471 88 ft 11 kts 180°
2026-05-07 09:13 51.46868 -0.48471 86 ft 13 kts 179°
2026-05-07 09:14 51.46768 -0.48468 86 ft 16 kts 179°
2026-05-07 09:14 51.46667 -0.48468 86 ft 11 kts 179°
2026-05-07 09:14 51.46595 -0.48466 87 ft 10 kts 179°
2026-05-07 09:14 51.46526 -0.48465 87 ft 10 kts 180°
2026-05-07 09:15 51.46479 -0.48403 87 ft 11 kts 87°
2026-05-07 09:15 51.46481 -0.48142 88 ft 49 kts 90°
2026-05-07 09:15 51.46482 -0.47251 87 ft 109 kts 90°
2026-05-07 09:15 51.46488 -0.45977 86 ft 155 kts 90°
2026-05-07 09:16 51.46487 -0.45392 105 ft 169 kts 91°
2026-05-07 09:16 51.46508 -0.43557 863 ft 160 kts 90°
2026-05-07 09:16 51.46585 -0.41752 1580 ft 169 kts 79°
2026-05-07 09:16 51.47152 -0.39963 2001 ft 195 kts 52°
2026-05-07 09:17 51.48085 -0.38196 2427 ft 221 kts 51°
2026-05-07 09:17 51.49133 -0.36201 3031 ft 246 kts 50°
2026-05-07 09:17 51.50279 -0.34015 3835 ft 262 kts 50°
2026-05-07 09:17 51.51467 -0.31738 4910 ft 269 kts 49°
2026-05-07 09:18 51.52476 -0.29192 5946 ft 275 kts 68°
2026-05-07 09:18 51.53165 -0.26298 6969 ft 280 kts 62°
2026-05-07 09:18 51.54408 -0.23894 7935 ft 284 kts 36°
2026-05-07 09:18 51.56191 -0.22575 8932 ft 285 kts 10°
2026-05-07 09:19 51.58166 -0.22657 9921 ft 288 kts 347°
2026-05-07 09:19 51.60154 -0.23411 10521 ft 305 kts 346°
2026-05-07 09:19 51.62242 -0.24518 10879 ft 326 kts 336°
2026-05-07 09:19 51.64277 -0.26270 11546 ft 335 kts 329°
2026-05-07 09:20 51.66306 -0.28187 12337 ft 341 kts 329°
2026-05-07 09:20 51.68330 -0.30119 13130 ft 345 kts 328°
2026-05-07 09:20 51.70405 -0.32115 13924 ft 350 kts 328°
2026-05-07 09:20 51.72504 -0.34144 14626 ft 354 kts 328°
2026-05-07 09:21 51.74625 -0.36200 15343 ft 357 kts 328°
2026-05-07 09:21 51.76767 -0.38275 16089 ft 361 kts 328°
2026-05-07 09:21 51.78930 -0.40368 16819 ft 365 kts 328°
2026-05-07 09:21 51.81116 -0.42486 17530 ft 368 kts 328°
2026-05-07 09:22 51.83322 -0.44626 18250 ft 372 kts 328°
2026-05-07 09:22 51.85557 -0.46791 18886 ft 375 kts 328°
2026-05-07 09:22 51.87809 -0.48974 19504 ft 379 kts 328°
2026-05-07 09:22 51.90080 -0.51182 20120 ft 383 kts 328°
2026-05-07 09:23 51.92375 -0.53417 20728 ft 387 kts 328°
2026-05-07 09:23 51.94693 -0.55684 21314 ft 391 kts 328°
2026-05-07 09:23 51.97037 -0.57978 21897 ft 395 kts 328°
2026-05-07 09:23 51.99402 -0.60297 22485 ft 399 kts 328°
2026-05-07 09:24 52.01785 -0.62634 23071 ft 402 kts 328°
2026-05-07 09:24 52.04195 -0.64997 23617 ft 406 kts 328°
2026-05-07 09:24 52.06630 -0.67384 24057 ft 411 kts 329°
2026-05-07 09:24 52.09089 -0.69798 24502 ft 414 kts 329°
2026-05-07 09:25 52.11530 -0.72196 24977 ft 417 kts 329°
2026-05-07 09:25 52.14019 -0.74640 25444 ft 419 kts 329°
2026-05-07 09:25 52.16524 -0.77105 25928 ft 421 kts 329°
2026-05-07 09:25 52.19040 -0.79586 26390 ft 424 kts 329°
2026-05-07 09:26 52.21571 -0.82088 26854 ft 427 kts 329°
2026-05-07 09:26 52.24085 -0.84582 27306 ft 429 kts 329°
2026-05-07 09:26 52.26671 -0.87155 27765 ft 432 kts 329°
2026-05-07 09:26 52.29248 -0.89718 28210 ft 435 kts 330°
2026-05-07 09:27 52.31841 -0.92296 28668 ft 437 kts 330°
2026-05-07 09:27 52.34451 -0.94891 29121 ft 440 kts 330°
2026-05-07 09:27 52.39712 -1.00123 29960 ft 445 kts 330°
2026-05-07 09:28 52.42367 -1.02778 30304 ft 449 kts 330°
2026-05-07 09:28 52.45043 -1.05461 30610 ft 451 kts 330°
2026-05-07 09:28 52.47727 -1.08159 30940 ft 454 kts 330°
2026-05-07 09:28 52.50430 -1.10877 31252 ft 456 kts 330°
2026-05-07 09:29 52.53141 -1.13607 31564 ft 458 kts 330°
2026-05-07 09:29 52.55855 -1.16346 32010 ft 458 kts 330°
2026-05-07 09:29 52.58567 -1.19086 32459 ft 457 kts 330°
2026-05-07 09:29 52.61230 -1.21775 32904 ft 456 kts 330°
2026-05-07 09:30 52.63933 -1.24504 33358 ft 455 kts 330°
2026-05-07 09:30 52.66631 -1.27232 33820 ft 455 kts 330°
2026-05-07 09:30 52.69325 -1.29958 34242 ft 454 kts 330°
2026-05-07 09:30 52.72011 -1.32682 34630 ft 453 kts 330°
2026-05-07 09:31 52.74698 -1.35417 35081 ft 453 kts 330°
2026-05-07 09:31 52.77376 -1.38155 35455 ft 452 kts 329°
2026-05-07 09:31 52.80047 -1.40893 35857 ft 451 kts 329°
2026-05-07 09:31 52.82718 -1.43632 36055 ft 452 kts 329°
2026-05-07 09:32 52.85379 -1.46359 36085 ft 449 kts 329°
2026-05-07 09:32 52.90677 -1.51794 36087 ft 448 kts 329°
2026-05-07 09:33 52.95976 -1.57247 36076 ft 448 kts 329°
2026-05-07 09:33 53.01278 -1.62724 36084 ft 449 kts 328°
2026-05-07 09:34 53.06679 -1.67772 36081 ft 450 kts 339°
2026-05-07 09:34 53.12539 -1.71381 36086 ft 449 kts 341°
2026-05-07 09:35 53.18390 -1.75016 36080 ft 449 kts 340°
2026-05-07 09:35 53.24246 -1.78672 36084 ft 449 kts 340°
2026-05-07 09:36 53.30103 -1.82326 36077 ft 449 kts 340°
2026-05-07 09:36 53.35959 -1.85985 36082 ft 449 kts 340°
2026-05-07 09:37 53.41809 -1.89671 36081 ft 449 kts 339°
2026-05-07 09:37 53.47658 -1.93356 36074 ft 449 kts 340°
2026-05-07 09:38 53.53515 -1.97055 36077 ft 449 kts 339°
2026-05-07 09:38 53.59363 -2.00762 36074 ft 449 kts 339°
2026-05-07 09:39 53.65174 -2.04451 36076 ft 449 kts 339°
2026-05-07 09:39 53.71020 -2.08179 36069 ft 449 kts 339°
2026-05-07 09:40 53.76866 -2.11947 36063 ft 449 kts 338°
2026-05-07 09:40 53.82673 -2.15886 36053 ft 450 kts 337°
2026-05-07 09:41 53.88466 -2.19913 36060 ft 450 kts 337°
2026-05-07 09:41 53.93285 -2.23249 36055 ft 450 kts 337°
2026-05-07 09:42 53.99097 -2.27250 36064 ft 450 kts 337°
2026-05-07 09:42 54.04720 -2.31872 36048 ft 449 kts 330°
2026-05-07 09:43 54.10200 -2.36992 36046 ft 449 kts 330°
2026-05-07 09:43 54.15680 -2.42122 36035 ft 449 kts 330°
2026-05-07 09:43 54.18419 -2.44698 35812 ft 450 kts 330°
2026-05-07 09:44 54.21153 -2.47276 35554 ft 449 kts 330°
2026-05-07 09:44 54.23886 -2.49855 35317 ft 448 kts 329°
2026-05-07 09:44 54.26610 -2.52438 35063 ft 448 kts 329°
2026-05-07 09:44 54.29336 -2.55028 34814 ft 448 kts 329°
2026-05-07 09:45 54.32062 -2.57608 34561 ft 447 kts 330°
2026-05-07 09:45 54.34781 -2.60180 34319 ft 447 kts 330°
2026-05-07 09:45 54.37505 -2.62764 34071 ft 447 kts 329°
2026-05-07 09:45 54.40223 -2.65352 33809 ft 447 kts 330°
2026-05-07 09:46 54.42942 -2.67952 33539 ft 447 kts 330°
2026-05-07 09:46 54.45667 -2.70561 33256 ft 448 kts 330°
2026-05-07 09:46 54.48358 -2.73137 32991 ft 449 kts 329°
2026-05-07 09:46 54.51086 -2.75754 32719 ft 449 kts 328°
2026-05-07 09:47 54.53817 -2.78375 32074 ft 450 kts 329°
2026-05-07 09:47 54.56539 -2.80986 31539 ft 446 kts 329°
2026-05-07 09:47 54.59238 -2.83579 30983 ft 442 kts 328°
2026-05-07 09:47 54.61915 -2.86158 30412 ft 438 kts 328°
2026-05-07 09:48 54.64562 -2.88714 29818 ft 435 kts 328°
2026-05-07 09:48 54.67186 -2.91252 29231 ft 430 kts 328°
2026-05-07 09:48 54.69787 -2.93771 28351 ft 431 kts 329°
2026-05-07 09:48 54.72412 -2.96319 27732 ft 428 kts 329°
2026-05-07 09:49 54.74973 -2.98809 27385 ft 418 kts 329°
2026-05-07 09:49 54.77495 -3.01265 26870 ft 412 kts 329°
2026-05-07 09:49 54.79986 -3.03694 26305 ft 409 kts 329°
2026-05-07 09:49 54.82462 -3.06110 25750 ft 406 kts 329°
2026-05-07 09:50 54.84913 -3.08499 25197 ft 403 kts 329°
2026-05-07 09:50 54.87350 -3.10878 24613 ft 402 kts 329°
2026-05-07 09:50 54.89783 -3.13258 24075 ft 401 kts 329°
2026-05-07 09:50 54.92206 -3.15633 23615 ft 398 kts 329°
2026-05-07 09:51 54.94606 -3.17994 23097 ft 395 kts 329°
2026-05-07 09:51 54.96992 -3.20346 22653 ft 392 kts 328°
2026-05-07 09:51 54.99362 -3.22685 22183 ft 389 kts 328°
2026-05-07 09:51 55.01704 -3.25001 21705 ft 386 kts 328°
2026-05-07 09:52 55.04001 -3.27278 21250 ft 383 kts 328°
2026-05-07 09:52 55.06304 -3.29559 20772 ft 380 kts 328°
2026-05-07 09:52 55.08599 -3.31826 20279 ft 377 kts 328°
2026-05-07 09:52 55.10875 -3.34076 19792 ft 374 kts 327°
2026-05-07 09:53 55.13130 -3.36313 19290 ft 371 kts 327°
2026-05-07 09:53 55.15365 -3.38533 18780 ft 368 kts 327°
2026-05-07 09:53 55.17581 -3.40740 18274 ft 365 kts 327°
2026-05-07 09:53 55.19772 -3.42928 17728 ft 361 kts 327°
2026-05-07 09:54 55.21941 -3.45098 17248 ft 357 kts 327°
2026-05-07 09:54 55.24091 -3.47250 16737 ft 354 kts 327°
2026-05-07 09:54 55.26222 -3.49387 16245 ft 352 kts 327°
2026-05-07 09:54 55.28339 -3.51509 15755 ft 350 kts 327°
2026-05-07 09:55 55.30445 -3.53622 15261 ft 348 kts 327°
2026-05-07 09:55 55.32543 -3.55734 14763 ft 346 kts 327°
2026-05-07 09:55 55.34630 -3.57838 14276 ft 345 kts 327°
2026-05-07 09:55 55.36705 -3.59927 13788 ft 343 kts 327°
2026-05-07 09:56 55.38769 -3.62005 13260 ft 341 kts 327°
2026-05-07 09:56 55.40821 -3.64072 12774 ft 339 kts 327°
2026-05-07 09:56 55.42858 -3.66125 12287 ft 336 kts 327°
2026-05-07 09:56 55.44879 -3.68173 11812 ft 334 kts 326°
2026-05-07 09:57 55.46883 -3.70206 11372 ft 331 kts 326°
2026-05-07 09:57 55.48873 -3.72206 10929 ft 327 kts 326°
2026-05-07 09:57 55.50846 -3.74170 10481 ft 324 kts 327°
2026-05-07 09:57 55.52774 -3.76104 10293 ft 312 kts 326°
2026-05-07 09:58 55.54631 -3.77940 10178 ft 300 kts 327°
2026-05-07 09:58 55.56431 -3.79701 9965 ft 292 kts 326°
2026-05-07 09:58 55.58208 -3.81415 9655 ft 290 kts 327°
2026-05-07 09:58 55.59963 -3.83128 9285 ft 288 kts 326°
2026-05-07 09:59 55.61709 -3.84844 8895 ft 285 kts 326°
2026-05-07 09:59 55.63433 -3.86550 8292 ft 283 kts 326°
2026-05-07 09:59 55.65151 -3.88239 7693 ft 281 kts 326°
2026-05-07 09:59 55.66835 -3.89897 7110 ft 280 kts 326°
2026-05-07 10:00 55.68546 -3.91568 6746 ft 280 kts 327°
2026-05-07 10:00 55.70232 -3.93237 6568 ft 274 kts 326°
2026-05-07 10:00 55.71880 -3.94836 6441 ft 266 kts 326°
2026-05-07 10:00 55.73481 -3.96382 6272 ft 260 kts 326°
2026-05-07 10:01 55.75076 -3.97905 5977 ft 259 kts 326°
2026-05-07 10:01 55.76662 -3.99412 5659 ft 258 kts 326°
2026-05-07 10:01 55.78241 -4.00909 5343 ft 257 kts 326°
2026-05-07 10:01 55.79815 -4.02394 5102 ft 256 kts 326°
2026-05-07 10:02 55.81384 -4.03875 4889 ft 254 kts 326°
2026-05-07 10:02 55.82950 -4.05339 4598 ft 254 kts 326°
2026-05-07 10:02 55.84535 -4.06723 4285 ft 255 kts 330°
2026-05-07 10:02 55.86160 -4.07975 3951 ft 254 kts 331°
2026-05-07 10:03 55.87780 -4.09220 3642 ft 253 kts 331°
2026-05-07 10:03 55.89382 -4.10445 3495 ft 246 kts 331°
2026-05-07 10:03 55.90911 -4.11598 3496 ft 232 kts 331°
2026-05-07 10:03 55.92366 -4.12682 3500 ft 223 kts 331°
2026-05-07 10:04 55.93780 -4.13731 3490 ft 216 kts 331°
2026-05-07 10:04 55.95158 -4.14744 3299 ft 213 kts 331°
2026-05-07 10:04 55.96519 -4.15753 3073 ft 211 kts 331°
2026-05-07 10:04 55.97793 -4.16970 2989 ft 203 kts 309°
2026-05-07 10:05 55.98507 -4.19019 3014 ft 190 kts 277°
2026-05-07 10:05 55.98521 -4.21253 3005 ft 179 kts 249°
2026-05-07 10:05 55.97947 -4.23132 2913 ft 165 kts 224°
2026-05-07 10:05 55.97175 -4.24582 2786 ft 156 kts 223°
2026-05-07 10:06 55.96459 -4.25932 2577 ft 148 kts 223°
2026-05-07 10:06 55.95773 -4.27226 2376 ft 138 kts 223°
2026-05-07 10:06 55.95140 -4.28417 2198 ft 127 kts 222°
2026-05-07 10:06 55.94548 -4.29530 2040 ft 121 kts 222°
2026-05-07 10:07 55.93973 -4.30611 1874 ft 119 kts 221°
2026-05-07 10:07 55.93407 -4.31675 1712 ft 118 kts 220°
2026-05-07 10:07 55.92843 -4.32735 1542 ft 118 kts 221°
2026-05-07 10:07 55.92279 -4.33794 1375 ft 118 kts 221°
2026-05-07 10:08 55.91716 -4.34850 1207 ft 118 kts 221°
2026-05-07 10:08 55.91153 -4.35906 1027 ft 119 kts 220°
2026-05-07 10:08 55.90590 -4.36957 856 ft 117 kts 221°
2026-05-07 10:08 55.90023 -4.38011 703 ft 117 kts 222°
2026-05-07 10:09 55.89473 -4.39069 585 ft 118 kts 222°
2026-05-07 10:09 55.88913 -4.40119 417 ft 116 kts 220°
2026-05-07 10:09 55.88358 -4.41171 214 ft 117 kts 220°
2026-05-07 10:09 55.87806 -4.42203 67 ft 114 kts 220°
2026-05-07 10:10 55.87301 -4.43123 29 ft 86 kts 225°
2026-05-07 10:10 55.87041 -4.43590 29 ft 29 kts 216°
2026-05-07 10:10 55.86895 -4.43705 29 ft 25 kts 198°
2026-05-07 10:10 55.86774 -4.43775 29 ft 11 kts 202°
2026-05-07 10:11 55.86740 -4.43798 29 ft 0 kts 199°
2026-05-07 10:11 55.86735 -4.43791 29 ft 2 kts 152°
2026-05-07 10:11 55.86734 -4.43757 29 ft 4 kts 83°
2026-05-07 10:11 55.86738 -4.43712 29 ft 4 kts 80°
2026-05-07 10:12 55.86740 -4.43696 29 ft 3 kts 78°
2026-05-07 10:12 55.86747 -4.43644 29 ft 6 kts 74°
2026-05-07 10:12 55.86762 -4.43554 29 ft 9 kts 73°
2026-05-07 10:12 55.86783 -4.43441 29 ft 6 kts 72°
2026-05-07 10:13 55.86795 -4.43356 29 ft 8 kts 80°
2026-05-07 10:13 55.86762 -4.43287 29 ft 7 kts 172°
2026-05-07 10:13 55.86737 -4.43323 29 ft 0 kts 241°
2026-05-07 10:13 55.86737 -4.43325 29 ft 2 kts 242°
2026-05-07 10:14 55.86729 -4.43350 29 ft 0 kts 239°
2026-05-07 10:14 55.86725 -4.43360 29 ft 0 kts 238°